TimeEST,TemperatureF,Dew PointF,Humidity,Sea Level PressureIn,VisibilityMPH,Wind Direction,Wind SpeedMPH,Gust SpeedMPH,PrecipitationIn,Events,Conditions,WindDirDegrees,DateUTC
12:51 AM,39.0,30.9,73,30.23,10.0,Variable,3.5,-,N/A,,Clear,0,2013-01-04 05:51:00
1:51 AM,39.0,30.9,73,30.24,10.0,Variable,4.6,-,N/A,,Clear,0,2013-01-04 06:51:00
2:51 AM,39.0,30.9,73,30.24,10.0,Variable,5.8,-,N/A,,Clear,0,2013-01-04 07:51:00
3:51 AM,39.0,32.0,76,30.23,10.0,NNW,5.8,-,N/A,,Clear,330,2013-01-04 08:51:00
4:51 AM,39.0,34.0,82,30.25,10.0,NW,9.2,-,N/A,,Clear,320,2013-01-04 09:51:00
5:51 AM,39.0,34.0,82,30.25,10.0,NW,9.2,-,N/A,,Clear,320,2013-01-04 10:51:00
6:51 AM,39.0,34.0,82,30.27,10.0,NW,5.8,-,N/A,,Clear,320,2013-01-04 11:51:00
7:51 AM,39.9,35.1,83,30.27,10.0,NW,6.9,-,N/A,,Clear,320,2013-01-04 12:51:00
8:51 AM,42.1,34.0,73,30.29,10.0,NW,5.8,-,N/A,,Clear,320,2013-01-04 13:51:00
9:51 AM,43.0,30.0,60,30.29,10.0,NW,8.1,-,N/A,,Clear,320,2013-01-04 14:51:00
10:51 AM,45.0,28.9,53,30.29,10.0,Variable,6.9,-,N/A,,Clear,0,2013-01-04 15:51:00
11:51 AM,45.0,28.9,53,30.25,10.0,WNW,8.1,-,N/A,,Clear,300,2013-01-04 16:51:00
12:51 PM,45.0,28.9,53,30.23,10.0,NW,5.8,-,N/A,,Clear,310,2013-01-04 17:51:00
1:51 PM,46.0,28.0,50,30.20,10.0,WNW,5.8,-,N/A,,Clear,290,2013-01-04 18:51:00
2:51 PM,46.0,28.9,51,30.19,10.0,West,9.2,-,N/A,,Clear,270,2013-01-04 19:51:00
3:51 PM,45.0,30.0,56,30.19,10.0,West,8.1,-,N/A,,Clear,270,2013-01-04 20:51:00
4:51 PM,43.0,30.9,62,30.18,10.0,West,4.6,-,N/A,,Clear,270,2013-01-04 21:51:00
5:51 PM,43.0,33.1,68,30.19,10.0,West,6.9,-,N/A,,Clear,270,2013-01-04 22:51:00
6:51 PM,43.0,36.0,76,30.20,10.0,West,4.6,-,N/A,,Clear,280,2013-01-04 23:51:00
7:51 PM,45.0,36.0,71,30.22,10.0,West,6.9,-,N/A,,Mostly Cloudy,280,2013-01-05 00:51:00
8:51 PM,45.0,37.0,74,30.23,10.0,West,5.8,-,N/A,,Clear,280,2013-01-05 01:51:00
9:51 PM,46.0,36.0,68,30.25,10.0,WNW,8.1,-,N/A,,Clear,290,2013-01-05 02:51:00
10:51 PM,45.0,36.0,71,30.26,10.0,WNW,4.6,-,N/A,,Mostly Cloudy,290,2013-01-05 03:51:00
11:51 PM,42.1,36.0,79,30.24,10.0,West,4.6,-,N/A,,Scattered Clouds,270,2013-01-05 04:51:00